Location: Newark
(34.0131°N, 4.3314°W)
Time: 11:34:44
(UTC+00:00)

Vanguard 3 - All Passes

Search period start: 16 October 2019 00:00
Search period end: 26 October 2019 00:00
Orbit: 508 x 3262 km, 33.3° (Epoch: 15 October)

Date Brightness Start Highest point End Pass type
(mag) Time Alt. Az. Time Alt. Az. Time Alt. Az.
16 Oct - 01:03:59 10° WSW 01:07:35 50° SSE 01:12:16 10° E night (unlit)
16 Oct - 03:14:28 10° W 03:19:01 85° S 03:26:40 10° E visible
16 Oct - 05:25:07 10° W 05:31:19 58° SSW 05:42:30 10° ESE visible
16 Oct - 07:37:05 10° W 07:44:48 29° SSW 07:56:39 10° SSE daylight
16 Oct - 23:51:08 10° SW 23:54:16 26° SSE 23:57:36 10° E night (unlit)
17 Oct - 02:01:23 10° W 02:05:17 80° S 02:11:00 10° E visible
17 Oct - 04:11:58 10° W 04:17:05 71° S 04:26:02 10° ESE visible
17 Oct - 06:23:03 10° W 06:29:47 38° SSW 06:41:05 10° SE daylight
17 Oct - 08:37:41 10° WSW 08:43:49 16° SSW 08:51:37 10° S daylight
17 Oct - 22:38:55 10° S 22:40:52 13° SSE 22:42:42 10° ESE night (unlit)
18 Oct - 00:48:11 10° WSW 00:51:47 57° SSE 00:56:08 10° E night (unlit)
18 Oct - 02:58:54 10° W 03:03:10 82° S 03:10:00 10° E visible
18 Oct - 05:09:35 10° W 05:15:15 49° SSW 05:25:05 10° SE visible
18 Oct - 07:21:56 10° WSW 07:28:30 23° SSW 07:38:02 10° SSE daylight
18 Oct - 23:34:58 10° SW 23:38:26 32° SSE 23:41:51 10° E night (unlit)
19 Oct - 01:45:45 10° W 01:49:30 83° S 01:54:40 10° E visible
19 Oct - 03:56:25 10° W 04:01:08 63° SSW 04:09:05 10° ESE visible
19 Oct - 06:07:41 10° W 06:13:39 31° SSW 06:23:07 10° SSE daylight
19 Oct - 08:24:50 10° SW 08:27:30 11° SSW 08:30:28 10° SSW daylight
19 Oct - 22:21:53 10° SSW 22:24:59 18° SSE 22:27:39 10° ESE night (unlit)
20 Oct - 00:32:23 10° WSW 00:36:01 65° SSE 00:40:05 10° E night (unlit)
20 Oct - 02:43:19 10° W 02:47:20 77° S 02:53:27 10° ESE visible
20 Oct - 04:54:07 10° W 04:59:14 40° SSW 05:07:41 10° SE visible
20 Oct - 07:07:15 10° WSW 07:12:19 17° SSW 07:19:05 10° S daylight
20 Oct - 21:09:47 10° S 21:11:14 11° SSE 21:12:34 10° SE night (unlit)
20 Oct - 23:18:47 10° SW 23:22:38 40° SSE 23:26:07 10° E night (unlit)
21 Oct - 01:30:05 10° W 01:33:45 84° S 01:38:26 10° E night (unlit)
21 Oct - 03:40:54 10° W 03:45:14 53° SSW 03:52:12 10° ESE visible
21 Oct - 05:52:32 10° WSW 05:57:35 23° SSW 06:05:03 10° SSE visible
21 Oct - 22:05:05 10° SW 22:09:08 25° SSE 22:12:22 10° ESE night (unlit)
22 Oct - 00:16:31 10° WSW 00:20:17 73° S 00:24:08 10° E night (unlit)
22 Oct - 02:27:43 10° W 02:31:33 69° S 02:37:00 10° ESE visible
22 Oct - 04:38:46 10° W 04:43:17 31° SSW 04:50:18 10° SE visible
22 Oct - 06:53:47 10° SW 06:56:14 11° SSW 06:59:02 10° S daylight
22 Oct - 20:51:33 10° SSW 20:55:22 17° SSE 20:58:21 10° ESE visible
22 Oct - 23:02:34 10° WSW 23:06:51 50° SSE 23:10:25 10° E night (unlit)
23 Oct - 01:14:22 10° W 01:18:01 82° S 01:22:19 10° E night (unlit)
23 Oct - 03:25:23 10° W 03:29:22 42° SSW 03:35:22 10° SE visible
23 Oct - 05:37:44 10° WSW 05:41:37 17° SSW 05:46:45 10° SSE visible
23 Oct - 19:39:07 10° S 19:41:14 11° SSE 19:43:07 10° SE visible
23 Oct - 21:48:20 10° SW 21:53:20 34° SSE 21:56:56 10° E night (unlit)
24 Oct - 00:00:36 10° W 00:04:33 79° S 00:08:17 10° E night (unlit)
24 Oct - 02:12:05 10° W 02:15:46 59° SSW 02:20:37 10° ESE visible
24 Oct - 04:23:32 10° WSW 04:27:24 23° SSW 04:32:51 10° SSE visible
24 Oct - 20:34:01 10° SSW 20:39:30 24° SSE 20:43:21 10° ESE visible
24 Oct - 22:46:17 10° WSW 22:51:05 61° SSE 22:54:45 10° E night (unlit)
25 Oct - 00:58:35 10° W 01:02:18 78° S 01:06:18 10° E night (unlit)
25 Oct - 03:09:55 10° W 03:13:33 32° SSW 03:18:35 10° SE visible
25 Oct - 05:24:06 10° SW 05:25:40 11° SSW 05:27:24 10° S visible
25 Oct - 19:20:03 10° SSW 19:25:19 17° SSE 19:29:14 10° ESE visible
25 Oct - 21:31:34 10° SW 21:37:29 43° SSE 21:41:28 10° E visible
25 Oct - 23:44:35 10° W 23:48:50 82° S 23:52:29 10° E night (unlit)
